Regional Weather Roundup
Issued by NWS Sioux Falls, SD

Home | Current Version | Previous Version | Text Only | Print | Product List | Glossary On
Versions: 1 2 3 4 5 6 7 8 9 10 11 12 13 14 15 16 17 18 19 20 21 22 23 24 25 26 27 28 29 30 31 32 33 34 35 36 37 38 39 40 41 42 43 44 45 46 47 48 49 50
000
ASUS43 KFSD 280710
RWRFSD

WEATHER ROUNDUP FOR SE SOUTH DAKOTA/SW MINNESOTA/NW IOWA
NATIONAL WEATHER SERVICE SIOUX FALLS SD
200 AM CDT THU MAY 28 2015

NOTE: "FAIR" INDICATES FEW OR NO CLOUDS BELOW 12,000 FEET WITH NO
SIGNIFICANT WEATHER AND OR OBSTRUCTIONS TO VISIBILITY.


SDZ038>040-050-052>070-280800-
SOUTHEAST SOUTH DAKOTA

CITY           SKY/WX    TMP DP  RH WIND       PRES   REMARKS
BROOKINGS      MOCLDY    66  50  55 S7        30.03S
CHAMBERLAIN    CLOUDY    61  56  82 S3        29.97S
HURON            N/A    N/A N/A N/A MISG      29.96F
MITCHELL       MOCLDY    64  54  69 SE9       29.98F
SIOUX FALLS    MOCLDY    65  50  58 S10       30.03S
WINNER         FAIR      64  54  69 S9        29.96F
YANKTON        MOCLDY    66  48  52 S8        30.01S
$$

MNZ071-072-080-081-089-090-097-098-280800-
SOUTHWEST MINNESOTA

CITY           SKY/WX    TMP DP  RH WIND       PRES   REMARKS
FAIRMONT       CLEAR     64  52  63 S8        30.06S
MARSHALL       PTCLDY    66  48  52 SW12      30.01S
REDWOOD FALLS  MOCLDY    65  55  70 S7        30.02R
WORTHINGTON    PTCLDY    64  48  55 S9        30.07S
$$

IAZ001>003-012>014-020>022-031-032-NEZ013-014-SDZ071-280800-
NORTHWEST IOWA

CITY           SKY/WX    TMP DP  RH WIND       PRES   REMARKS
CHEROKEE       PTCLDY    57  57  99 CALM      30.07F
DENISON        PTCLDY    63  54  72 CALM      30.07S
ESTHERVILLE    PTCLDY    60  54  80 S8        30.07S
LE MARS        PTCLDY    64  52  63 S6        30.06F
ORANGE CITY    PTCLDY    63  50  63 CALM      30.06F
SHELDON        PTCLDY    61  52  72 S8        30.05S
SIOUX CITY     CLEAR     62  52  69 E7        30.05F
SPENCER        PTCLDY    59  54  83 S5        30.07S
STORM LAKE     PTCLDY    63  52  67 S7        30.09F
$$

ABBREVIATIONS USED IN REMARKS
   TC - TEMPERATURE IN CELSIUS
  WCI - WIND CHILL INDEX
   HX - HEAT INDEX
  VSB - VISIBILITY



USA.gov is the U.S. government's official web portal to all federal, state and local government web resources and services.